Weather History for KISP - October, 2012

Change the Weather History Date:

Thursday, October 11, 2012

  Actual Average Record
Temperature  
Mean Temperature 53 °F 56 °F  
Max Temperature 60 °F 65 °F 78 °F (1990)
Min Temperature 46 °F 47 °F 31 °F (1993)
Degree Days  
Heating Degree Days 12 10  
Month to date heating degree days 59 88  
Since 1 July heating degree days 112 165  
Cooling Degree Days 0 0  
Month to date cooling degree days 15 9  
Year to date cooling degree days 993 786  
Growing Degree Days 4 (Base 50)    
Moisture  
Dew Point 35 °F    
Average Humidity 51    
Maximum Humidity 66    
Minimum Humidity 36    
Precipitation  
Precipitation 0.00 in 0.12 in 2.47 in (2006)
Month to date precipitation 0.50 1.37  
Year to date precipitation 35.10 36.09  
Snow  
Snow 0.00 in 0.00 in - ()
Month to date snowfall 0.0 0.0  
Since 1 July snowfall 0.0 0.0  
Snow Depth 0.00 in    
Sea Level Pressure  
Sea Level Pressure 30.11 in    
Wind  
Wind Speed 9 mph (West)    
Max Wind Speed 20 mph    
Max Gust Speed 30 mph    
Visibility 10 miles    
Events      
T = Trace of Precipitation, MM = Missing Value Source: NWS Daily Summary

Daily Weather History Graph

Daily Weather History Graph

Search for Another Location

Airport or City:

Trip Planner

Search our weather history database for the weather conditions in past years. The results will help you decide how hot, cold, wet, or windy it might be!

Date:

Astronomy

Oct. 11, 2012 Rise Set
Actual Time 6:59 AM EDT 6:17 PM EDT
Civil Twilight 6:32 AM EDT 6:44 PM EDT
Nautical Twilight 6:00 AM EDT 7:16 PM EDT
Astronomical Twilight 5:28 AM EDT 7:48 PM EDT
Moon 2:33 AM EDT (10/11) 3:53 PM EDT (10/11)
Length of Visible Light 12h 12m
Length of Day
11h 17m
Waning Crescent, 18% of the Moon is Illuminated
Oct 11
Waning Crescent
Oct 15
New
Oct 21
First Quarter
Oct 29
Full
Nov 6
Last Quarter

Hourly Weather History & Observations

Time (EDT) Temp. Dew Point Humidity Pressure Visibility Wind Dir Wind Speed Gust Speed Precip Events Conditions
12:56 AM 53.1 °F 36.0 °F 52% 29.94 in 10.0 mi NW 11.5 mph - N/A   Partly Cloudy
2:56 AM 50.0 °F 37.9 °F 63% 29.98 in 10.0 mi West 6.9 mph - N/A   Partly Cloudy
3:56 AM 50.0 °F 37.9 °F 63% 30.00 in 10.0 mi WNW 8.1 mph - N/A   Partly Cloudy
4:56 AM 50.0 °F 36.0 °F 59% 30.02 in 10.0 mi WNW 12.7 mph - N/A   Partly Cloudy
5:56 AM 48.9 °F 34.0 °F 56% 30.06 in 10.0 mi WNW 16.1 mph 29.9 mph N/A   Partly Cloudy
6:56 AM 48.0 °F 34.0 °F 58% 30.08 in 10.0 mi WNW 12.7 mph 23.0 mph N/A   Partly Cloudy
8:56 AM 51.1 °F 34.0 °F 52% 30.14 in 10.0 mi WNW 16.1 mph 24.2 mph N/A   Clear
9:56 AM 52.0 °F 34.0 °F 50% 30.16 in 10.0 mi WNW 17.3 mph 25.3 mph N/A   Clear
10:56 AM 54.0 °F 34.0 °F 47% 30.16 in 10.0 mi WNW 16.1 mph 25.3 mph N/A   Partly Cloudy
11:56 AM 55.9 °F 35.1 °F 45% 30.18 in 10.0 mi NW 11.5 mph 18.4 mph N/A   Partly Cloudy
12:56 PM 55.9 °F 34.0 °F 44% 30.16 in 10.0 mi West 15.0 mph 19.6 mph N/A   Partly Cloudy
1:56 PM 57.9 °F 33.1 °F 39% 30.14 in 10.0 mi North 5.8 mph - N/A   Partly Cloudy
2:56 PM 59.0 °F 32.0 °F 36% 30.14 in 10.0 mi Variable 5.8 mph - N/A   Clear
3:56 PM 59.0 °F 32.0 °F 36% 30.14 in 10.0 mi West 10.4 mph - N/A   Clear
4:56 PM 57.9 °F 35.1 °F 42% 30.14 in 10.0 mi SSW 8.1 mph - N/A   Clear
5:56 PM 55.0 °F 36.0 °F 49% 30.14 in 10.0 mi SW 9.2 mph - N/A   Clear
7:56 PM 52.0 °F 37.0 °F 57% 30.14 in 10.0 mi SSW 6.9 mph - N/A   Clear
9:56 PM 50.0 °F 37.0 °F 61% 30.17 in 10.0 mi WSW 3.5 mph - N/A   Clear
10:56 PM 48.9 °F 37.0 °F 64% 30.15 in 10.0 mi SW 5.8 mph - N/A   Partly Cloudy
11:56 PM 48.9 °F 37.9 °F 66% 30.15 in 10.0 mi WSW 3.5 mph - N/A   Partly Cloudy